Regional Weather Roundup
Issued by NWS Charleston, WV

Home | Current Version | Previous Version | Text Only | Print | Product List | Glossary Off
Versions: 1 2 3 4 5 6 7 8 9 10 11 12 13 14 15 16 17 18 19 20 21 22 23 24 25 26 27 28 29 30 31 32 33 34 35 36 37 38 39 40 41 42 43 44 45 46 47 48 49 50

620
ASUS41 KRLX 200910
RWRRLX
West Virginia Regional Weather Roundup
National Weather Service Charleston WV
500 AM EDT SUN MAY 20 2018

Note: "fair" indicates few or no clouds below 12,000 feet with no
significant weather and/or obstructions to visibility.

WVZ003-201000-
Northern Panhandle of West Virginia

CITY           SKY/WX    TMP DP  RH WIND       PRES   REMARKS
WHEELING       CLOUDY    67  65  93 SW5       30.00R
$$

WVZ009-201000-
Northwest West Virginia

CITY           SKY/WX    TMP DP  RH WIND       PRES   REMARKS
PARKERSBURG    MOCLDY    66  64  93 S6        30.05R
$$

WVZ006-201000-
Western West Virginia

CITY           SKY/WX    TMP DP  RH WIND       PRES   REMARKS
HUNTINGTON     FAIR      66  63  90 SW3       30.05R
$$

WVZ015-201000-
West Central West Virginia

CITY           SKY/WX    TMP DP  RH WIND       PRES   REMARKS
CHARLESTON     FAIR      62  62 100 CALM      30.05R
$$

WVZ022-031-201000-
North Central West Virginia

CITY           SKY/WX    TMP DP  RH WIND       PRES   REMARKS
CLARKSBURG     CLOUDY    69  64  84 SW6       30.04R
MORGANTOWN     CLOUDY    67  66  97 S5        30.03R
$$

WVZ025-035-042-045-201000-
Southern West Virginia

CITY           SKY/WX    TMP DP  RH WIND       PRES   REMARKS
BECKLEY        FAIR      60  60 100 SW3       30.13R
LOGAN          FOG       63  63 100 CALM      30.10R VSB<1/4
BLUEFIELD      CLOUDY    61  61 100 SW3       30.16R
LEWISBURG      MOCLDY    61  60  98 SW3       30.13R FOG
$$

WVZ047-201000-
Northern Mountains of West Virginia

CITY           SKY/WX    TMP DP  RH WIND       PRES   REMARKS
ELKINS         CLOUDY    66  61  84 SW5       30.09R
$$

WVZ052-201000-
Eastern Panhandle of West Virginia

CITY           SKY/WX    TMP DP  RH WIND       PRES   REMARKS
MARTINSBURG    FOG       59  59 100 CALM      29.98S VSB 1/4
PETERSBURG     CLOUDY    60  60  99 CALM      30.02R FOG
$$




USA.gov is the U.S. government's official web portal to all federal, state and local government web resources and services.